Lone Rock, WI

7:04 PM CDT on August 29, 2016 (GMT -0500)
Tri-County Regional

Weather History for KLNR - November, 2012

Change the Weather History Date:

Tuesday, November 6, 2012

  Actual Average Record
Temperature  
Mean Temperature 31 °F -  
Max Temperature 37 °F 47 °F 69 °F (2001)
Min Temperature 25 °F 30 °F 21 °F (2010)
Degree Days  
Heating Degree Days 34    
Moisture  
Dew Point 33 °F    
Average Humidity 92    
Maximum Humidity 100    
Minimum Humidity 78    
Precipitation  
Precipitation 0.13 in - - ()
Sea Level Pressure  
Sea Level Pressure 29.91 in    
Wind  
Wind Speed 2 mph (SE)    
Max Wind Speed 8 mph    
Max Gust Speed -    
Visibility 3 miles    
Events Fog , Rain , Snow    
Averages and records for this station are not official NWS values.
T = Trace of Precipitation, MM = Missing Value Source: NWS Daily Summary

Daily Weather History Graph

Daily Weather History Graph

Search for Another Location

Airport or City:

Trip Planner

Search our weather history database for the weather conditions in past years. The results will help you decide how hot, cold, wet, or windy it might be!

Date:

Astronomy

Nov. 06, 2012 Rise Set
Actual Time 6:42 AM CST 4:45 PM CST
Civil Twilight 6:12 AM CST 5:15 PM CST
Nautical Twilight 5:38 AM CST 5:49 PM CST
Astronomical Twilight 5:05 AM CST 6:22 PM CST
Moon 11:26 PM CST (11/6) 12:33 PM CST (11/6)
Length of Visible Light 11h 02m
Length of Day
10h 02m
Waning Gibbous, 53% of the Moon is Illuminated
Nov 6
Waning Gibbous
Nov 6
Last Quarter
Nov 13
New
Nov 20
First Quarter
Nov 28
Full

Hourly Weather History & Observations

Time (CST) Temp. Windchill Dew Point Humidity Pressure Visibility Wind Dir Wind Speed Gust Speed Precip Events Conditions
12:56 AM 25.0 °F - 21.9 °F 88% 30.09 in 5.0 mi Calm Calm - N/A   Scattered Clouds
1:56 AM 25.0 °F 19.3 °F 21.9 °F 88% 30.06 in 5.0 mi East 4.6 mph - N/A   Clear
2:56 AM 25.0 °F - 23.0 °F 92% 30.04 in 5.0 mi Calm Calm - N/A   Clear
3:56 AM 25.0 °F - 23.0 °F 92% 30.03 in 5.0 mi Calm Calm - N/A   Clear
4:56 AM 30.9 °F 26.2 °F 27.0 °F 85% 29.99 in 5.0 mi ENE 4.6 mph - N/A   Overcast
5:56 AM 33.1 °F - 28.0 °F 82% 29.98 in 5.0 mi Calm Calm - N/A   Haze
6:56 AM 35.1 °F 31.0 °F 28.9 °F 78% 29.97 in 6.0 mi South 4.6 mph - N/A   Haze
7:37 AM 35.6 °F 29.2 °F 30.2 °F 81% 29.95 in 2.5 mi South 8.1 mph - 0.00 in Snow Light Snow
7:56 AM 35.1 °F 30.1 °F 30.9 °F 85% 29.96 in 2.0 mi SSE 5.8 mph - 0.00 in Snow Light Snow
8:21 AM 33.8 °F 29.6 °F 32.0 °F 93% 29.94 in 2.0 mi SE 4.6 mph - 0.00 in Snow Light Snow
8:51 AM 33.8 °F 29.6 °F 32.0 °F 93% 29.93 in 1.5 mi ESE 4.6 mph - 0.00 in Snow Light Snow
8:56 AM 34.0 °F 29.8 °F 32.0 °F 92% 29.94 in 1.2 mi ESE 4.6 mph - 0.01 in Snow Light Snow
9:03 AM 33.8 °F 29.6 °F 32.0 °F 93% 29.93 in 0.8 mi ESE 4.6 mph - 0.00 in Snow Light Snow
9:18 AM 32.0 °F 26.4 °F 32.0 °F 100% 29.93 in 0.5 mi ESE 5.8 mph - 0.01 in Fog , Snow Snow
9:56 AM 32.0 °F 26.4 °F 32.0 °F 100% 29.94 in 0.5 mi East 5.8 mph - 0.03 in Fog , Snow Light Snow
10:27 AM 33.8 °F 28.6 °F 32.0 °F 93% 29.91 in 0.8 mi ESE 5.8 mph - 0.02 in Snow Light Snow
10:56 AM 34.0 °F 28.8 °F 33.1 °F 96% 29.92 in 1.0 mi ESE 5.8 mph - 0.03 in Snow Light Snow
11:56 AM 36.0 °F - 34.0 °F 93% 29.88 in 1.2 mi Calm Calm - 0.00 in   Overcast
12:15 PM 35.6 °F 31.7 °F 33.8 °F 93% 29.86 in 2.5 mi SSE 4.6 mph - 0.00 in Rain Light Rain
12:22 PM 35.6 °F 32.8 °F 33.8 °F 93% 29.86 in 3.0 mi South 3.5 mph - 0.01 in Rain Light Rain
12:56 PM 36.0 °F 32.1 °F 34.0 °F 93% 29.86 in 3.0 mi SE 4.6 mph - 0.02 in Rain Light Rain
1:56 PM 37.0 °F 32.4 °F 34.0 °F 89% 29.84 in 6.0 mi SSE 5.8 mph - 0.01 in   Overcast
2:56 PM 36.0 °F 32.1 °F 34.0 °F 93% 29.85 in 1.8 mi SE 4.6 mph - 0.01 in Rain Light Rain
3:39 PM 35.6 °F - 35.6 °F 100% 29.84 in 1.2 mi Calm Calm - 0.01 in   Overcast
4:49 PM 37.4 °F - 35.6 °F 93% 29.85 in 2.5 mi Calm Calm - 0.01 in Rain Light Rain
4:56 PM 37.0 °F - 36.0 °F 96% 29.86 in 2.5 mi Calm Calm - 0.02 in Rain Light Rain
5:09 PM 37.4 °F - 35.6 °F 93% 29.85 in 3.0 mi Calm Calm - 0.00 in   Overcast
5:23 PM 37.4 °F - 35.6 °F 93% 29.85 in 4.0 mi Calm Calm - 0.00 in   Overcast
5:29 PM 37.4 °F - 35.6 °F 93% 29.85 in 2.5 mi Calm Calm - 0.00 in   Overcast
5:56 PM 37.0 °F - 36.0 °F 96% 29.86 in 2.5 mi Calm Calm - 0.00 in   Overcast
5:59 PM 37.4 °F - 35.6 °F 93% 29.86 in 3.0 mi Calm Calm - N/A   Overcast
6:22 PM 37.4 °F - 35.6 °F 93% 29.86 in 4.0 mi Calm Calm - N/A   Overcast
6:30 PM 37.4 °F - 35.6 °F 93% 29.86 in 4.0 mi Calm Calm - N/A   Overcast
6:56 PM 37.0 °F 33.3 °F 35.1 °F 93% 29.87 in 3.0 mi ESE 4.6 mph - N/A   Overcast
7:56 PM 37.0 °F - 35.1 °F 93% 29.87 in 3.0 mi Calm Calm - N/A   Overcast
8:56 PM 37.0 °F - 36.0 °F 96% 29.88 in 3.0 mi Calm Calm - N/A   Overcast
9:32 PM 37.4 °F - 35.6 °F 93% 29.88 in 2.5 mi Calm Calm - N/A   Overcast
9:56 PM 37.0 °F - 36.0 °F 96% 29.89 in 2.5 mi Calm Calm - N/A   Overcast
10:29 PM 37.4 °F - 35.6 °F 93% 29.88 in 2.5 mi Calm Calm - N/A   Overcast
10:41 PM 37.4 °F - 35.6 °F 93% 29.88 in 3.0 mi Calm Calm - N/A   Overcast
10:56 PM 37.0 °F - 36.0 °F 96% 29.89 in 2.5 mi Calm Calm - N/A   Overcast
11:34 PM 37.4 °F - 35.6 °F 93% 29.89 in 3.0 mi Calm Calm - N/A   Overcast
11:46 PM 37.4 °F - 35.6 °F 93% 29.90 in 2.5 mi Calm Calm - N/A   Overcast
11:56 PM 37.0 °F - 36.0 °F 96% 29.91 in 2.5 mi Calm Calm - N/A   Overcast